TimeMDT,TemperatureF,Dew PointF,Humidity,Sea Level PressureIn,VisibilityMPH,Wind Direction,Wind SpeedMPH,Gust SpeedMPH,PrecipitationIn,Events,Conditions,WindDirDegrees,DateUTC
12:52 AM,46.9,26.1,44,30.06,10.0,NW,10.4,-,N/A,,Clear,320,2013-03-14 06:52:00
1:52 AM,48.9,28.0,44,30.08,10.0,NNW,13.8,-,N/A,,Clear,330,2013-03-14 07:52:00
2:52 AM,48.0,28.9,48,30.10,10.0,NNW,13.8,-,N/A,,Clear,330,2013-03-14 08:52:00
3:52 AM,45.0,28.9,53,30.11,10.0,NW,6.9,-,N/A,,Clear,310,2013-03-14 09:52:00
4:52 AM,46.0,28.9,51,30.12,10.0,WNW,8.1,-,N/A,,Clear,300,2013-03-14 10:52:00
5:52 AM,46.0,28.0,50,30.13,10.0,WNW,9.2,-,N/A,,Clear,300,2013-03-14 11:52:00
6:52 AM,44.1,28.0,53,30.16,10.0,NW,8.1,-,N/A,,Clear,320,2013-03-14 12:52:00
7:52 AM,45.0,28.0,52,30.19,10.0,WNW,8.1,-,N/A,,Clear,290,2013-03-14 13:52:00
8:52 AM,51.1,28.9,43,30.17,10.0,West,5.8,-,N/A,,Clear,270,2013-03-14 14:52:00
9:52 AM,55.9,28.9,36,30.16,10.0,SSW,5.8,-,N/A,,Clear,210,2013-03-14 15:52:00
10:52 AM,62.1,30.0,30,30.14,10.0,South,11.5,-,N/A,,Clear,170,2013-03-14 16:52:00
11:52 AM,66.0,28.9,25,30.09,10.0,South,8.1,17.3,N/A,,Clear,170,2013-03-14 17:52:00
12:52 PM,68.0,28.0,22,30.08,10.0,SSE,5.8,-,N/A,,Clear,150,2013-03-14 18:52:00
1:52 PM,71.1,28.0,20,30.04,10.0,SSE,8.1,-,N/A,,Clear,150,2013-03-14 19:52:00
2:52 PM,70.0,27.0,20,30.01,10.0,Calm,Calm,-,N/A,,Clear,0,2013-03-14 20:52:00
3:52 PM,71.1,26.1,19,30.00,10.0,Variable,6.9,-,N/A,,Partly Cloudy,0,2013-03-14 21:52:00
4:52 PM,70.0,25.0,18,29.99,10.0,Calm,Calm,-,N/A,,Clear,0,2013-03-14 22:52:00
5:52 PM,64.9,27.0,24,29.99,10.0,ENE,6.9,-,N/A,,Clear,70,2013-03-14 23:52:00
6:52 PM,55.9,25.0,30,30.01,10.0,ENE,9.2,-,N/A,,Partly Cloudy,60,2013-03-15 00:52:00
7:52 PM,55.9,25.0,30,29.99,10.0,ENE,6.9,-,N/A,,Clear,70,2013-03-15 01:52:00
8:52 PM,57.0,26.1,30,29.98,10.0,WNW,4.6,-,N/A,,Mostly Cloudy,300,2013-03-15 02:52:00
9:52 PM,54.0,27.0,35,29.97,10.0,NNW,8.1,-,N/A,,Scattered Clouds,330,2013-03-15 03:52:00
10:52 PM,55.0,27.0,34,29.94,10.0,NW,6.9,-,N/A,,Overcast,310,2013-03-15 04:52:00
11:52 PM,55.0,26.1,33,29.91,10.0,NW,6.9,-,N/A,,Partly Cloudy,310,2013-03-15 05:52:00